STARLINK-34011 (63845 NORAD) Tracking and Keplerian Element Data

This shows tracking and keplerian element data for the satellite.

Feedback or suggestion? Click here.




ElementValue
Catalog63845
NameSTARLINK-34011
Epoch Orbit3549
Epoch Day353.56563793
Epoch Year2025
RAAN170.7977
Inclination42.9967
Eccentricity0.0001197
Argument of Perigee215.6973
Mean Anonmoly144.3799
Mean Motion15.2759209
Decay Rate0.00018104
L11 63845U 25093K 25353.56563793 .00018104 00000+0 66553-3 0 9998
L22 63845 42.9967 170.7977 0001197 215.6973 144.3799 15.27592090 35492



Live tracking and technical data element details for STARLINK-34011 (NORAD 63845). STARLINK-34011 can be tracked NOW for your location showing map with azimuth and elevation plus other details from your city location.







IsCatalogInMostPopularTable: catalog: 63845, numindb: 3
Update: records affected: 1



GetName: 63845 STARLINK-34011

Hit Count: updated at: Sun, 08 Feb 2026 17:47:58 GMT